PBO Station Position Time Series. Reference Frame : NAM14
Format Version,1.1.0
4-character ID,SPN5
Station name,Spokane_5
Begin Date, 2008-04-09
End Date, 2016-08-04
Release Date, 2019-08-30
Reference position, 47.5183556992 North Latitude, -117.4236991091 East Longitude, 720.10152 meters elevation,
Date, North (mm), East (mm), Vertical (mm), North Std. Deviation (mm), East Std. Deviation (mm),              Vertical Std. Deviation (mm), Quality,
2008-04-09,0.00, 0.00, 0.00, 2.21, 1.52, 6.85, repro,
2008-04-10,-1.31, 0.45, -2.11, 2.19, 1.50, 6.75, repro,
2008-04-11,-0.47, 0.07, -12.30, 2.18, 1.50, 6.76, repro,
2008-04-12,-1.43, 0.33, -6.20, 2.25, 1.54, 7.00, repro,
2008-04-13,-1.11, 0.72, -8.70, 2.22, 1.51, 6.83, repro,
2008-04-14,-0.97, 0.16, 0.54, 2.20, 1.50, 6.75, repro,
2008-04-15,-0.90, 0.08, 5.37, 2.23, 1.54, 6.93, repro,
2008-04-16,-1.27, 0.14, -0.78, 2.21, 1.55, 6.89, repro,
2008-04-17,-0.08, -0.47, -6.14, 2.18, 1.50, 6.74, repro,
2008-04-18,-0.91, 0.12, -1.53, 2.21, 1.49, 6.79, repro,
2008-04-19,0.53, 0.10, -0.68, 2.21, 1.50, 6.76, repro,
2008-04-20,-1.20, 0.15, -1.86, 2.20, 1.49, 6.76, repro,
2008-04-21,-1.13, -0.24, -2.33, 2.20, 1.50, 6.81, repro,
2008-04-22,0.19, -0.59, -3.95, 2.19, 1.48, 6.74, repro,
2008-04-23,-0.52, 0.66, -3.00, 2.24, 1.51, 6.87, repro,
2008-04-24,-0.60, 0.28, -1.52, 2.24, 1.51, 6.88, repro,
2008-04-25,0.03, 0.09, -4.15, 2.23, 1.51, 6.86, repro,
2008-04-26,-0.92, -0.66, -9.36, 2.47, 1.67, 7.57, repro,
2008-04-27,-0.82, 1.10, -3.77, 2.30, 1.53, 6.90, repro,
2008-04-28,-0.38, 0.38, -9.23, 2.22, 1.50, 6.79, repro,
2008-04-29,-1.25, 0.13, 2.03, 2.28, 1.51, 6.93, repro,
2008-04-30,-1.37, 0.10, 3.94, 2.29, 1.54, 6.96, repro,
2008-05-01,0.72, -0.56, -1.76, 2.24, 1.52, 6.87, repro,
2008-05-02,-0.84, -0.38, -5.98, 2.23, 1.51, 6.87, repro,
2008-05-03,0.41, 0.01, -2.96, 2.25, 1.55, 6.95, repro,
2008-05-04,-0.41, -0.55, -1.03, 2.24, 1.50, 6.78, repro,
2008-05-05,-0.36, 0.74, -5.09, 2.27, 1.53, 6.87, repro,
2008-05-06,1.11, -0.79, -4.02, 2.27, 1.54, 6.89, repro,
2008-05-07,-0.24, -0.15, -0.39, 2.23, 1.50, 6.83, repro,
2008-05-08,-0.41, -0.61, -3.33, 2.20, 1.49, 6.75, repro,
2008-05-09,-0.41, -0.61, -2.09, 2.23, 1.49, 6.72, repro,
2008-05-10,-1.38, 1.22, -5.09, 2.21, 1.48, 6.69, repro,
2008-05-11,-0.28, -0.60, 2.07, 2.21, 1.49, 6.72, repro,
2008-05-12,-0.89, 0.27, 4.48, 2.19, 1.49, 6.71, repro,
2008-05-13,-1.60, 0.56, -1.44, 2.21, 1.49, 6.75, repro,
2008-05-14,0.50, -0.86, -1.10, 2.20, 1.49, 6.72, repro,
2008-05-15,-1.59, -1.27, -8.09, 2.22, 1.49, 6.70, repro,
2008-05-16,-1.14, -0.11, -9.32, 2.22, 1.49, 6.71, repro,
2008-05-17,-0.32, -1.06, -7.12, 2.19, 1.49, 6.69, repro,
2008-05-18,-0.91, 0.30, -0.83, 2.26, 1.53, 6.88, repro,
2008-05-19,0.45, -0.28, -1.18, 2.21, 1.49, 6.76, repro,
2008-05-20,-1.13, 0.06, -0.01, 2.20, 1.49, 6.73, repro,
2008-05-21,-1.87, -0.35, 3.51, 2.19, 1.48, 6.70, repro,
2008-05-22,0.04, 0.06, 1.89, 2.22, 1.52, 6.88, repro,
2008-05-23,-1.25, -0.50, 1.12, 2.27, 1.57, 7.05, repro,
2008-05-24,-0.80, -1.09, -6.02, 2.18, 1.48, 6.68, repro,
2008-05-25,-1.49, 0.47, 3.12, 2.21, 1.50, 6.73, repro,
2008-05-26,-1.47, -0.71, -0.44, 2.23, 1.54, 6.93, repro,
2008-05-27,-1.26, -0.70, -2.79, 2.21, 1.50, 6.75, repro,
2008-05-28,-1.00, 0.83, -3.38, 2.22, 1.54, 6.96, repro,
2008-05-29,-0.21, 0.35, -0.75, 2.55, 1.79, 7.87, repro,
2008-05-30,-0.51, 0.78, -2.15, 2.20, 1.50, 6.75, repro,
2008-05-31,-1.54, 1.40, -6.73, 2.23, 1.51, 6.80, repro,
2008-06-01,-0.78, 0.38, 1.07, 2.19, 1.48, 6.67, repro,
2008-06-02,0.04, 0.69, 0.39, 2.21, 1.50, 6.80, repro,
2008-06-03,-2.26, 0.36, -4.13, 2.76, 1.90, 8.54, repro,
2008-06-05,-0.88, 1.00, -1.23, 2.22, 1.51, 6.81, repro,
2008-06-06,-0.43, -0.29, 0.53, 2.27, 1.54, 6.94, repro,
2008-06-07,-1.79, -0.04, 5.38, 2.26, 1.56, 7.01, repro,
2008-06-08,-0.59, 0.15, -6.11, 2.23, 1.52, 6.83, repro,
2008-06-09,-2.98, 0.51, 0.71, 2.25, 1.54, 6.92, repro,
2008-06-10,-0.77, 1.23, -3.57, 2.28, 1.55, 6.90, repro,
2008-06-12,-1.89, 0.23, -4.14, 2.24, 1.51, 6.86, repro,
2008-06-13,-0.43, 0.84, -6.34, 2.19, 1.49, 6.75, repro,
2008-06-14,0.61, 0.25, -6.48, 2.29, 1.58, 7.21, repro,
2008-06-15,-1.20, 0.81, -5.03, 2.26, 1.54, 6.90, repro,
2008-06-16,-1.49, 1.71, -3.95, 2.20, 1.51, 6.81, repro,
2008-06-17,-0.16, 1.17, -5.90, 2.23, 1.52, 6.85, repro,
2008-06-20,-0.37, 1.23, -9.00, 2.28, 1.62, 7.35, repro,
2008-06-21,0.17, 1.48, -11.16, 2.28, 1.56, 6.97, repro,
2008-06-22,0.76, 0.37, -7.76, 2.25, 1.52, 6.90, repro,
2008-06-23,-0.29, 0.92, -3.32, 2.22, 1.51, 6.79, repro,
2008-06-24,0.40, 0.95, -5.89, 2.24, 1.52, 6.87, repro,
2008-06-25,-1.72, 1.11, -2.09, 2.22, 1.52, 6.88, repro,
2008-06-26,-0.44, 1.77, -0.68, 2.23, 1.56, 6.96, repro,
2008-06-27,-1.42, 0.23, -6.96, 2.22, 1.52, 6.82, repro,
2008-06-28,-1.07, 1.00, -5.63, 2.22, 1.52, 6.85, repro,
2008-06-29,0.59, 1.52, -9.31, 2.21, 1.51, 6.80, repro,
2008-06-30,-0.19, 1.14, -13.34, 2.23, 1.52, 6.86, repro,
2008-07-01,0.53, 1.83, -4.33, 2.33, 1.58, 7.14, repro,
2008-07-02,-0.18, -0.72, -7.52, 2.31, 1.60, 7.14, repro,
2008-07-03,-1.09, 1.43, 3.17, 2.25, 1.56, 6.93, repro,
2008-07-04,0.05, 1.48, -2.00, 2.23, 1.52, 6.86, repro,
2008-07-05,-0.12, 0.65, -6.66, 2.22, 1.50, 6.84, repro,
2008-07-06,0.28, 0.13, -0.78, 2.23, 1.52, 6.89, repro,
2008-07-07,1.17, 0.81, -0.88, 2.21, 1.51, 6.83, repro,
2008-07-08,0.09, 0.30, -7.18, 2.20, 1.50, 6.78, repro,
2008-07-09,1.38, -0.11, 2.89, 2.22, 1.50, 6.82, repro,
2008-07-10,-0.37, -0.61, -6.50, 2.28, 1.54, 6.94, repro,
2008-07-11,1.75, -0.49, -3.55, 2.32, 1.59, 7.24, repro,
2008-07-12,1.76, 0.72, -1.42, 2.24, 1.51, 6.92, repro,
2008-07-13,1.32, -0.60, -3.24, 2.23, 1.56, 7.05, repro,
2008-07-14,0.81, -0.36, -1.53, 2.25, 1.56, 7.11, repro,
2008-07-15,1.66, 0.28, -3.31, 2.22, 1.50, 6.82, repro,
2008-07-16,0.36, 0.52, -4.40, 2.22, 1.51, 6.84, repro,
2008-07-17,0.97, 1.45, -1.01, 2.21, 1.52, 6.88, repro,
2008-07-18,0.32, 0.46, 2.68, 2.31, 1.56, 7.11, repro,
2008-07-19,0.80, 0.36, 3.00, 2.29, 1.53, 6.96, repro,
2008-07-20,0.90, 0.37, 6.43, 2.20, 1.50, 6.79, repro,
2008-07-21,0.92, 0.44, 9.93, 2.23, 1.54, 6.94, repro,
2008-07-22,1.76, 1.19, 2.79, 2.24, 1.55, 7.09, repro,
2008-07-23,-1.05, 1.67, 6.98, 2.25, 1.52, 6.89, repro,
2008-07-24,0.15, -0.14, 3.02, 2.21, 1.52, 6.87, repro,
2008-07-25,-0.22, -0.47, -26.07, 6.00, 4.34, 19.81, repro,
2008-07-30,3.16, 3.25, 7.25, 5.29, 3.27, 14.30, repro,
2008-08-01,-1.38, -0.51, 14.78, 2.21, 1.50, 6.79, repro,
2008-08-02,2.77, -0.91, 8.79, 2.24, 1.50, 6.88, repro,
2008-08-03,-0.08, 0.62, 5.03, 2.27, 1.54, 7.05, repro,
2008-08-04,1.30, 0.39, 5.67, 2.87, 2.02, 9.20, repro,
2008-08-05,0.76, -0.57, 0.03, 2.20, 1.49, 6.75, repro,
2008-08-06,0.28, 0.64, 4.65, 2.26, 1.52, 6.89, repro,
2008-08-07,0.63, 0.11, 7.33, 2.28, 1.55, 6.97, repro,
2008-08-08,2.05, -1.37, 8.78, 2.29, 1.57, 7.16, repro,
2008-08-09,1.60, -0.70, 7.74, 2.48, 1.66, 7.62, repro,
2008-08-10,2.48, -0.84, 3.92, 2.22, 1.52, 6.89, repro,
2008-08-11,0.77, -0.46, -0.84, 2.52, 1.76, 8.08, repro,
2008-08-12,1.87, 0.49, 7.43, 2.23, 1.52, 6.93, repro,
2008-08-13,0.72, -0.14, 6.01, 2.27, 1.51, 6.90, repro,
2008-08-14,-0.28, -0.61, 0.00, 2.19, 1.49, 6.74, repro,
2008-08-15,0.41, -0.71, 3.61, 2.22, 1.52, 6.92, repro,
2008-08-16,0.35, -0.53, 4.82, 2.21, 1.51, 6.83, repro,
2008-08-17,0.80, -0.89, 12.36, 2.24, 1.53, 6.93, repro,
2008-08-18,1.68, -0.24, 7.55, 2.23, 1.52, 6.85, repro,
2008-08-19,-0.69, 1.13, 12.18, 2.23, 1.51, 6.82, repro,
2008-08-20,0.07, -0.74, 19.77, 2.20, 1.50, 6.75, repro,
2008-08-21,1.32, -0.74, 8.20, 2.27, 1.56, 6.99, repro,
2008-08-22,0.21, -1.85, 12.70, 2.22, 1.51, 6.80, repro,
2008-08-23,1.39, -0.86, 5.08, 2.22, 1.51, 6.83, repro,
2008-08-24,-0.30, -0.14, 7.96, 2.22, 1.54, 6.88, repro,
2008-08-25,-1.93, -0.31, 11.77, 2.20, 1.51, 6.80, repro,
2008-08-26,2.45, 0.29, 13.17, 2.28, 1.53, 6.87, repro,
2008-08-27,0.13, -1.18, 9.38, 2.26, 1.54, 6.93, repro,
2008-08-28,-0.85, 0.09, 10.73, 2.35, 1.59, 7.08, repro,
2008-08-29,2.19, -0.14, 1.38, 2.21, 1.51, 6.81, repro,
2008-08-30,1.25, 0.54, 9.59, 2.24, 1.53, 6.91, repro,
2008-08-31,2.23, -0.19, 10.14, 2.24, 1.53, 6.90, repro,
2008-09-01,0.53, -0.52, 2.97, 2.24, 1.53, 6.88, repro,
2008-09-02,-0.58, -0.06, 3.33, 2.22, 1.53, 6.89, repro,
2008-09-03,0.48, -1.21, 3.78, 2.25, 1.58, 7.14, repro,
2008-09-04,2.67, -0.71, 4.99, 2.39, 1.60, 7.31, repro,
2008-09-05,1.11, 0.16, 5.08, 2.30, 1.58, 7.09, repro,
2008-09-06,1.91, -0.33, 6.72, 2.21, 1.52, 6.84, repro,
2008-09-07,0.14, -0.04, 2.95, 2.21, 1.50, 6.81, repro,
2008-09-08,1.33, -0.28, 3.44, 2.21, 1.51, 6.79, repro,
2008-09-09,2.43, -0.79, 6.71, 2.25, 1.51, 6.84, repro,
2008-09-10,2.05, 0.66, 13.62, 2.39, 1.59, 7.08, repro,
2008-09-11,-0.57, 0.06, 4.36, 2.37, 1.64, 7.37, repro,
2008-09-12,2.02, -0.70, 9.25, 2.28, 1.57, 7.07, repro,
2008-09-13,-0.59, -1.24, 11.93, 2.34, 1.54, 6.95, repro,
2008-09-14,1.03, -0.63, 4.96, 2.27, 1.52, 6.85, repro,
2008-09-15,0.90, -0.44, 2.85, 2.25, 1.51, 6.83, repro,
2008-09-16,1.73, -0.55, 5.28, 2.27, 1.55, 6.99, repro,
2008-09-17,1.64, 0.02, 3.54, 2.28, 1.56, 7.07, repro,
2008-09-18,-0.43, 0.05, 6.12, 2.24, 1.52, 6.88, repro,
2008-09-19,1.35, 0.17, 7.03, 2.21, 1.50, 6.78, repro,
2008-09-20,0.75, 0.41, 6.41, 2.20, 1.49, 6.70, repro,
2008-09-21,-0.80, -0.22, 11.47, 2.18, 1.49, 6.67, repro,
2008-09-22,-0.16, -0.50, 13.14, 2.20, 1.50, 6.73, repro,
2008-09-23,0.09, -0.69, 4.71, 2.25, 1.52, 6.85, repro,
2008-09-25,0.80, 0.13, 7.73, 2.21, 1.51, 6.79, repro,
2008-09-26,0.07, -0.28, 5.77, 2.20, 1.49, 6.74, repro,
2008-09-27,0.65, -0.47, 8.30, 2.28, 1.59, 7.05, repro,
2008-09-28,1.86, 0.01, 8.96, 2.32, 1.58, 7.15, repro,
2008-09-29,1.28, 0.14, 1.62, 2.33, 1.58, 7.10, repro,
2008-09-30,1.21, 0.25, 0.39, 2.21, 1.50, 6.82, repro,
2008-10-01,0.37, 0.16, 4.38, 2.19, 1.50, 6.75, repro,
2008-10-02,1.11, 1.04, 6.73, 2.63, 1.70, 7.75, repro,
2008-10-03,-0.32, 1.41, 11.46, 2.35, 1.57, 7.01, repro,
2008-10-04,0.51, -0.05, 16.86, 2.21, 1.50, 6.79, repro,
2008-10-05,0.91, -0.53, 8.31, 2.22, 1.50, 6.78, repro,
2008-10-06,-0.43, -0.23, 7.09, 2.24, 1.51, 6.81, repro,
2008-10-07,1.38, 0.23, 10.94, 2.22, 1.50, 6.76, repro,
2008-10-08,-0.48, -1.29, 7.17, 2.46, 1.71, 7.75, repro,
2008-10-09,0.92, -0.10, 6.50, 2.19, 1.49, 6.72, repro,
2008-10-10,0.76, -1.97, 3.28, 2.28, 1.54, 6.97, repro,
2008-10-11,-0.17, -1.56, 4.18, 2.23, 1.53, 6.85, repro,
2008-10-12,1.12, 0.21, 2.92, 2.18, 1.48, 6.65, repro,
2008-10-13,0.70, -0.98, -0.11, 2.20, 1.50, 6.72, repro,
2008-10-14,0.71, 0.03, 2.44, 2.22, 1.50, 6.78, repro,
2008-10-15,2.07, -0.97, 2.02, 2.26, 1.51, 6.86, repro,
2008-10-16,1.26, -0.58, 0.65, 2.27, 1.51, 6.90, repro,
2008-10-17,0.91, 0.06, -1.19, 2.18, 1.49, 6.69, repro,
2008-10-18,1.69, 0.16, 3.36, 2.21, 1.49, 6.75, repro,
2008-10-19,2.72, -0.29, 2.97, 2.20, 1.51, 6.80, repro,
2008-10-20,-2.32, -0.46, 8.74, 2.30, 1.57, 7.19, repro,
2008-10-21,1.51, -0.43, 3.61, 2.20, 1.52, 6.82, repro,
2008-10-22,-0.09, 0.21, -2.37, 2.19, 1.50, 6.72, repro,
2008-10-23,0.19, 0.19, 4.08, 2.21, 1.50, 6.76, repro,
2008-10-24,0.14, -0.76, 9.29, 2.20, 1.51, 6.76, repro,
2008-10-25,0.20, -0.41, 14.54, 2.22, 1.51, 6.85, repro,
2008-10-26,1.33, -1.04, 0.24, 2.20, 1.51, 6.77, repro,
2008-10-27,0.90, -0.38, -2.28, 2.21, 1.51, 6.78, repro,
2008-10-28,1.77, 0.02, -6.68, 2.32, 1.54, 6.90, repro,
2008-10-29,0.12, -0.52, 5.82, 2.32, 1.54, 6.88, repro,
2008-10-30,-0.38, -0.70, 6.78, 2.23, 1.51, 6.80, repro,
2008-10-31,0.73, -0.08, 3.36, 2.29, 1.58, 7.07, repro,
2008-11-01,-1.13, -0.60, 7.89, 2.23, 1.52, 6.87, repro,
2008-11-02,0.78, -0.32, 8.84, 2.26, 1.55, 7.00, repro,
2008-11-03,-0.93, -1.42, 12.10, 2.29, 1.59, 7.03, repro,
2008-11-04,-0.43, -1.48, 19.32, 2.25, 1.54, 6.95, repro,
2008-11-05,-0.08, -0.66, 9.55, 2.22, 1.52, 6.85, repro,
2008-11-06,0.77, -0.83, 3.56, 2.25, 1.58, 7.13, repro,
2008-11-07,-1.41, -0.95, 4.83, 2.24, 1.54, 6.89, repro,
2008-11-08,-0.51, -0.85, 7.76, 2.33, 1.59, 7.06, repro,
2008-11-09,-0.69, -1.34, 15.82, 2.25, 1.54, 6.90, repro,
2008-11-10,0.60, -0.79, 13.06, 2.24, 1.55, 6.91, repro,
2008-11-11,0.37, -0.56, 10.60, 2.33, 1.60, 7.25, repro,
2008-11-12,-0.43, -0.77, 12.45, 2.24, 1.52, 6.86, repro,
2008-11-13,-0.76, -0.21, 9.55, 2.29, 1.59, 7.08, repro,
2008-11-14,0.54, -0.53, 0.44, 2.37, 1.65, 7.44, repro,
2008-11-15,-1.09, 0.08, 0.26, 2.26, 1.59, 7.04, repro,
2008-11-16,0.02, -1.43, 3.88, 2.27, 1.61, 7.22, repro,
2008-11-17,0.46, -0.38, -0.49, 2.30, 1.62, 7.29, repro,
2008-11-18,0.96, -0.92, 1.87, 2.35, 1.67, 7.59, repro,
2008-11-19,0.41, 0.15, -3.98, 2.24, 1.57, 7.04, repro,
2008-11-20,0.08, -0.03, -0.96, 2.31, 1.63, 7.28, repro,
2008-11-21,0.95, -1.03, 3.69, 2.40, 1.72, 7.69, repro,
2008-11-22,-0.51, -0.83, 6.33, 2.36, 1.67, 7.56, repro,
2008-11-23,1.07, -0.33, -1.38, 2.36, 1.66, 7.42, repro,
2008-11-24,-0.67, 0.90, 3.61, 2.64, 1.77, 7.91, repro,
2008-11-25,0.22, 0.16, 3.24, 2.32, 1.64, 7.28, repro,
2008-11-26,-0.11, -0.84, 2.43, 2.20, 1.52, 6.78, repro,
2008-11-27,0.28, -0.05, 4.69, 2.25, 1.60, 7.18, repro,
2008-11-28,-0.50, -0.93, 5.37, 2.31, 1.64, 7.28, repro,
2008-11-29,-1.90, -1.62, 1.56, 2.33, 1.68, 7.44, repro,
2008-11-30,-1.09, -0.25, 8.24, 2.20, 1.52, 6.73, repro,
2008-12-01,-1.11, -0.81, 6.37, 2.22, 1.53, 6.83, repro,
2008-12-02,-1.13, -1.40, 9.07, 2.28, 1.61, 7.11, repro,
2008-12-03,0.37, -0.99, 5.93, 2.29, 1.60, 7.13, repro,
2008-12-04,1.07, -0.57, -4.26, 2.36, 1.76, 7.81, repro,
2008-12-05,-1.86, 0.30, 4.31, 2.25, 1.57, 6.95, repro,
2008-12-06,0.02, -0.98, 1.91, 2.35, 1.76, 7.78, repro,
2008-12-07,-1.16, -1.62, -2.29, 2.33, 1.69, 7.68, repro,
2008-12-08,0.11, -1.96, 6.21, 2.29, 1.60, 7.22, repro,
2008-12-09,-0.58, -0.91, -3.58, 2.24, 1.57, 6.96, repro,
2008-12-10,-0.35, -0.24, -4.29, 2.52, 1.69, 7.64, repro,
2008-12-11,0.65, -0.48, -3.86, 3.20, 2.06, 9.15, repro,
2008-12-12,0.98, -0.78, 0.14, 2.60, 1.79, 8.08, repro,
2008-12-13,-1.43, -2.60, 10.73, 6.47, 4.56, 18.83, repro,
2008-12-15,8.22, -1.09, 5.59, 8.61, 5.34, 21.14, repro,
2008-12-16,-0.07, -0.68, -0.64, 2.21, 1.52, 6.83, repro,
2008-12-17,-1.10, -0.78, -0.50, 2.27, 1.55, 6.98, repro,
2008-12-18,-2.18, -1.00, -9.33, 2.28, 1.55, 7.09, repro,
2008-12-19,-1.54, -3.06, -20.78, 2.33, 1.57, 7.22, repro,
2008-12-20,-1.54, -0.97, -3.15, 2.24, 1.52, 6.91, repro,
2008-12-21,-0.68, -1.89, -4.15, 2.24, 1.53, 6.91, repro,
2008-12-22,0.33, -2.07, 7.78, 2.33, 1.56, 7.14, repro,
2008-12-23,0.02, -1.93, 3.15, 2.34, 1.56, 7.20, repro,
2008-12-24,-0.03, -2.94, 2.11, 2.26, 1.55, 7.03, repro,
2008-12-25,0.84, -2.03, 12.84, 2.21, 1.50, 6.77, repro,
2008-12-26,0.85, -2.48, 5.71, 2.20, 1.50, 6.75, repro,
2008-12-27,-0.19, -2.18, 7.40, 2.20, 1.50, 6.77, repro,
2008-12-28,-2.27, -2.02, 5.46, 2.19, 1.51, 6.77, repro,
2008-12-29,-2.39, -1.34, 4.94, 2.23, 1.52, 6.89, repro,
2008-12-30,-0.37, -1.18, -9.66, 2.23, 1.50, 6.82, repro,
2008-12-31,-0.91, -0.57, -1.02, 2.20, 1.50, 6.74, repro,
2009-01-01,-1.59, -0.90, 0.12, 2.21, 1.51, 6.77, repro,
2009-01-02,-2.03, -1.54, 1.79, 2.26, 1.54, 6.96, repro,
2009-01-03,-0.70, -0.61, -3.25, 2.22, 1.52, 6.82, repro,
2009-01-04,-0.18, -0.63, -6.29, 2.21, 1.51, 6.81, repro,
2009-01-05,-1.80, -0.55, 5.98, 2.25, 1.54, 6.94, repro,
2009-01-06,-1.74, -1.67, 8.52, 2.20, 1.50, 6.79, repro,
2009-01-07,-1.43, -1.34, 5.54, 2.21, 1.51, 6.82, repro,
2009-01-08,-1.59, -0.05, 5.97, 2.26, 1.56, 6.99, repro,
2009-01-09,-1.57, -0.16, -10.75, 2.30, 1.58, 7.12, repro,
2009-01-10,-1.56, -0.23, -13.98, 2.21, 1.52, 6.88, repro,
2009-01-11,-2.59, -1.24, -11.06, 2.21, 1.51, 6.81, repro,
2009-01-12,-1.93, -0.04, -16.39, 2.26, 1.55, 7.03, repro,
2009-01-13,0.12, -0.67, -9.48, 2.26, 1.55, 6.99, repro,
2009-01-14,0.90, -0.51, -14.11, 2.23, 1.54, 6.92, repro,
2009-01-15,-1.72, -0.18, -15.55, 2.19, 1.52, 6.80, repro,
2009-01-16,-1.15, -0.97, -12.35, 2.27, 1.54, 7.04, repro,
2009-01-17,-0.84, -1.71, -15.64, 2.25, 1.55, 7.01, repro,
2009-01-18,0.96, -0.87, -12.14, 2.19, 1.50, 6.76, repro,
2009-01-19,-1.39, -1.10, -11.14, 2.24, 1.53, 6.86, repro,
2009-01-20,-1.13, -0.21, -12.44, 2.18, 1.52, 6.80, repro,
2009-01-21,-1.51, -0.75, -7.30, 2.19, 1.51, 6.81, repro,
2009-01-22,-0.04, -0.54, -2.72, 2.24, 1.53, 6.90, repro,
2009-01-23,-0.66, -0.52, -9.10, 2.22, 1.52, 6.87, repro,
2009-01-24,-0.35, -0.01, -11.41, 2.23, 1.53, 6.91, repro,
2009-01-25,-0.99, -0.42, -9.18, 2.24, 1.53, 6.95, repro,
2009-01-26,-0.95, -0.24, -8.16, 2.18, 1.53, 6.81, repro,
2009-01-27,-2.19, -0.18, -8.14, 2.18, 1.53, 6.87, repro,
2009-01-28,-0.17, -0.33, -8.84, 2.22, 1.53, 6.89, repro,
2009-01-29,-1.47, 0.22, -8.99, 2.18, 1.53, 6.82, repro,
2009-01-30,0.22, -0.17, -9.32, 2.18, 1.51, 6.72, repro,
2009-01-31,-1.92, -0.16, -6.52, 2.18, 1.52, 6.76, repro,
2009-02-01,-2.15, -0.88, -9.01, 2.20, 1.54, 6.89, repro,
2009-02-02,-0.89, 0.51, -9.32, 2.19, 1.52, 6.85, repro,
2009-02-03,0.01, -0.45, -13.58, 2.21, 1.56, 7.01, repro,
2009-02-04,-0.63, 0.17, -7.24, 2.17, 1.52, 6.79, repro,
2009-02-05,-1.00, 0.36, -7.14, 2.25, 1.58, 7.01, repro,
2009-02-06,-1.73, -0.93, -1.92, 2.26, 1.58, 7.02, repro,
2009-02-07,-2.78, 0.29, -5.58, 2.19, 1.54, 6.84, repro,
2009-02-08,-1.09, -0.17, -2.70, 2.19, 1.53, 6.85, repro,
2009-02-09,-2.32, -0.85, 3.75, 2.22, 1.54, 6.86, repro,
2009-02-10,-0.87, -0.40, 0.62, 2.18, 1.52, 6.75, repro,
2009-02-11,-0.98, -1.08, -3.80, 2.22, 1.57, 6.95, repro,
2009-02-12,-1.55, -0.82, -5.09, 2.23, 1.57, 7.02, repro,
2009-02-13,-2.46, -0.04, -2.06, 2.21, 1.56, 6.92, repro,
2009-02-14,-1.10, -0.35, -4.73, 2.20, 1.54, 6.86, repro,
2009-02-15,-1.74, -0.49, -3.83, 2.19, 1.55, 6.90, repro,
2009-02-16,-2.01, -0.33, 1.98, 2.18, 1.52, 6.80, repro,
2009-02-17,-2.51, -0.42, 2.41, 2.22, 1.54, 6.84, repro,
2009-02-18,-2.24, 0.19, -0.46, 2.21, 1.56, 7.01, repro,
2009-02-19,-1.48, -0.07, -8.41, 2.20, 1.57, 7.00, repro,
2009-02-20,-1.93, -0.38, -5.66, 2.22, 1.55, 6.99, repro,
2009-02-21,-0.48, -0.10, -9.08, 2.20, 1.55, 6.93, repro,
2009-02-22,-0.75, -0.16, -11.23, 2.18, 1.53, 6.81, repro,
2009-02-23,-3.01, -0.50, -6.87, 2.22, 1.56, 6.98, repro,
2009-02-24,-2.20, 0.46, 0.58, 2.30, 1.66, 7.36, repro,
2009-02-25,-1.97, -1.63, -0.20, 119.71, 184.48, 365.09, repro,
2009-02-26,-2.18, 0.67, -2.66, 2.30, 1.63, 7.28, repro,
2009-02-27,-1.31, -0.70, -9.44, 2.28, 1.60, 7.15, repro,
2009-02-28,-1.86, -0.40, -10.16, 2.23, 1.59, 7.09, repro,
2009-03-01,-2.41, 1.06, -7.86, 2.33, 1.63, 7.42, repro,
2009-03-02,-4.28, -0.13, -2.23, 2.25, 1.60, 7.23, repro,
2009-03-03,-2.50, 0.50, 0.01, 2.32, 1.66, 7.42, repro,
2009-03-04,-3.35, 0.94, -4.89, 2.27, 1.65, 7.30, repro,
2009-03-05,-2.77, -0.33, 2.21, 2.22, 1.59, 7.04, repro,
2009-03-06,-1.04, 0.17, 1.73, 2.22, 1.61, 7.06, repro,
2009-03-07,-2.12, -0.52, -3.13, 2.21, 1.56, 7.02, repro,
2009-03-08,-2.57, -0.02, 2.10, 2.31, 1.71, 7.67, repro,
2009-03-09,-1.59, 0.49, -1.95, 2.20, 1.53, 6.90, repro,
2009-03-10,-1.70, -0.63, -6.30, 2.25, 1.61, 7.12, repro,
2009-03-11,0.48, -0.44, -8.97, 2.39, 1.65, 7.17, repro,
2009-03-12,-1.53, 0.18, -11.83, 2.22, 1.57, 7.07, repro,
2009-03-13,-1.61, -0.02, -7.67, 2.21, 1.57, 7.11, repro,
2009-03-14,-3.38, -0.04, -0.66, 2.24, 1.60, 7.14, repro,
2009-03-15,-2.59, -0.42, 6.95, 2.19, 1.53, 6.86, repro,
2009-03-16,-0.50, 0.03, 0.32, 2.20, 1.56, 6.91, repro,
2009-03-17,-0.18, -0.16, -2.49, 2.17, 1.53, 6.83, repro,
2009-03-18,-2.10, -0.06, -9.72, 2.17, 1.53, 6.86, repro,
2009-03-19,-2.66, 0.10, -5.07, 2.20, 1.54, 6.96, repro,
2009-03-20,-0.85, 0.70, -1.25, 2.18, 1.52, 6.81, repro,
2009-03-21,-1.46, 0.23, -4.96, 2.19, 1.52, 6.81, repro,
2009-03-22,-1.66, -2.10, 1.85, 2.32, 1.68, 7.70, repro,
2009-03-23,-0.39, 0.39, -2.04, 2.17, 1.53, 6.79, repro,
2009-03-24,-2.15, -0.83, -5.75, 2.19, 1.54, 6.89, repro,
2009-03-25,-2.99, -0.03, -3.00, 2.17, 1.53, 6.82, repro,
2009-03-26,-1.48, -0.66, -5.17, 2.20, 1.53, 6.89, repro,
2009-03-27,-2.03, 0.44, -4.02, 2.21, 1.52, 6.81, repro,
2009-03-28,-1.49, 0.02, 0.85, 2.31, 1.64, 7.24, repro,
2009-03-31,-3.12, -0.32, 1.56, 3.92, 2.44, 11.05, repro,
2009-04-01,-1.68, -1.02, 1.52, 2.21, 1.54, 6.90, repro,
2009-04-02,-1.80, -1.14, 4.60, 2.28, 1.58, 7.10, repro,
2009-04-03,-1.20, -1.29, 1.13, 2.23, 1.56, 7.00, repro,
2009-04-04,-0.73, -0.82, -8.41, 2.21, 1.54, 6.92, repro,
2009-04-05,-1.48, -0.11, -11.15, 2.20, 1.54, 6.88, repro,
2009-04-06,-1.23, 0.38, -12.83, 2.22, 1.54, 6.90, repro,
2009-04-07,-0.16, -0.83, -7.76, 2.21, 1.53, 6.87, repro,
2009-04-08,-0.92, -0.00, -1.08, 2.22, 1.52, 6.91, repro,
2009-04-09,-0.43, -0.50, -2.44, 2.22, 1.53, 6.86, repro,
2009-04-10,-0.78, -0.63, -3.52, 2.24, 1.54, 6.95, repro,
2009-04-11,-2.11, -0.04, 0.25, 2.28, 1.58, 7.07, repro,
2009-04-12,-1.31, 0.05, -7.97, 2.25, 1.54, 6.94, repro,
2009-04-13,-1.59, -0.89, -6.58, 2.29, 1.65, 7.53, repro,
2009-04-14,-0.64, -0.75, -1.54, 2.21, 1.52, 6.87, repro,
2009-04-15,-1.09, -0.84, -4.06, 2.18, 1.51, 6.78, repro,
2009-04-16,-0.07, -1.93, -12.77, 2.19, 1.53, 6.82, repro,
2009-04-17,-1.03, 0.02, -11.47, 2.21, 1.54, 6.87, repro,
2009-04-18,0.65, -1.03, -10.18, 2.21, 1.54, 6.91, repro,
2009-04-19,-1.18, -0.48, -10.29, 2.21, 1.52, 6.83, repro,
2009-04-20,0.26, -0.76, -11.31, 2.24, 1.53, 6.90, repro,
2009-04-21,-0.41, -0.02, -9.33, 2.27, 1.61, 7.40, repro,
2009-04-22,-1.37, -0.30, 0.56, 2.29, 1.62, 7.44, repro,
2009-04-23,-0.66, -0.86, -3.98, 2.24, 1.57, 6.96, repro,
2009-04-24,-0.43, -1.44, -1.98, 2.29, 1.57, 7.02, repro,
2009-04-25,-0.74, -1.12, -4.90, 2.22, 1.52, 6.83, repro,
2009-04-26,-0.53, -0.15, -8.48, 2.21, 1.52, 6.82, repro,
2009-04-27,-1.56, -0.80, -7.35, 2.45, 1.68, 7.44, repro,
2009-04-28,-1.13, -0.29, -2.55, 2.23, 1.53, 6.90, repro,
2009-04-29,-1.94, -0.99, -4.14, 3.20, 2.27, 9.77, repro,
2009-04-30,-1.78, -1.25, -7.41, 2.23, 1.58, 6.96, repro,
2009-05-01,-1.69, -0.55, -7.55, 2.22, 1.51, 6.80, repro,
2009-05-02,-1.96, -0.20, -1.89, 2.19, 1.52, 6.80, repro,
2009-05-03,-1.60, 0.35, -1.28, 2.21, 1.51, 6.79, repro,
2009-05-04,-1.72, 0.04, -1.17, 2.23, 1.54, 6.94, repro,
2009-05-05,-1.30, -0.53, 3.47, 2.22, 1.51, 6.85, repro,
2009-05-06,-0.86, -0.89, -4.77, 2.24, 1.53, 6.87, repro,
2009-05-07,-1.91, -0.36, -7.60, 2.20, 1.51, 6.77, repro,
2009-05-08,-1.17, -0.11, -9.27, 2.20, 1.52, 6.83, repro,
2009-05-09,-0.09, 0.66, -8.98, 2.20, 1.51, 6.77, repro,
2009-05-10,-1.30, -0.56, -11.21, 2.18, 1.51, 6.77, repro,
2009-05-11,-1.18, 0.23, -5.48, 2.26, 1.54, 6.96, repro,
2009-05-12,-1.19, -0.16, -4.34, 2.29, 1.59, 7.02, repro,
2009-05-13,-0.45, -0.07, -4.22, 2.25, 1.56, 6.98, repro,
2009-05-14,-0.93, 0.75, 0.40, 2.19, 1.52, 6.78, repro,
2009-05-15,-0.56, 0.62, -6.71, 2.19, 1.51, 6.80, repro,
2009-05-16,-0.52, -0.06, -11.70, 2.20, 1.53, 6.83, repro,
2009-05-17,-0.26, 0.18, -12.76, 2.20, 1.52, 6.77, repro,
2009-05-18,-1.15, 0.15, -9.36, 2.18, 1.51, 6.71, repro,
2009-05-19,-1.62, 1.92, -3.81, 2.26, 1.57, 7.12, repro,
2009-05-20,0.10, 0.34, -9.00, 2.20, 1.51, 6.82, repro,
2009-05-21,-0.03, 0.03, -10.46, 2.19, 1.53, 6.85, repro,
2009-05-22,-0.89, 0.78, -10.92, 2.21, 1.54, 6.95, repro,
2009-05-23,-1.09, -0.26, -13.44, 2.21, 1.52, 6.84, repro,
2009-05-24,1.00, 1.25, -11.28, 2.19, 1.51, 6.77, repro,
2009-05-25,-0.55, 1.09, -8.48, 2.21, 1.51, 6.82, repro,
2009-05-26,-0.65, 0.16, -9.15, 2.20, 1.52, 6.86, repro,
2009-05-27,0.36, 0.24, -8.14, 2.19, 1.52, 6.86, repro,
2009-05-28,-1.26, -0.90, -3.25, 2.15, 1.51, 6.78, repro,
2009-05-29,-1.23, 1.01, -10.40, 2.17, 1.50, 6.74, repro,
2009-05-30,0.82, 1.35, -5.61, 2.19, 1.50, 6.80, repro,
2009-05-31,-1.05, 0.45, -9.57, 2.20, 1.52, 6.89, repro,
2009-06-01,0.04, 0.19, -6.42, 2.20, 1.52, 6.91, repro,
2009-06-02,0.02, 0.30, -7.90, 2.19, 1.52, 6.89, repro,
2009-06-03,-0.73, -0.31, -12.17, 2.18, 1.50, 6.82, repro,
2009-06-04,1.45, 0.07, -10.41, 2.17, 1.50, 6.77, repro,
2009-06-05,0.65, 1.86, -18.22, 2.20, 1.51, 6.84, repro,
2009-06-06,1.08, 1.61, -5.26, 2.34, 1.59, 7.23, repro,
2009-06-07,-0.95, -0.78, -9.42, 2.19, 1.52, 6.90, repro,
2009-06-08,0.20, -0.63, -5.14, 2.21, 1.53, 6.86, repro,
2009-06-09,-2.28, -0.10, -7.41, 2.21, 1.51, 6.82, repro,
2009-06-10,-0.37, -0.26, -8.49, 2.22, 1.52, 6.83, repro,
2009-06-11,-1.21, 0.25, -10.05, 2.23, 1.53, 6.85, repro,
2009-06-12,-0.66, 2.14, -10.86, 2.25, 1.55, 6.99, repro,
2009-06-13,-1.77, -0.52, -3.43, 2.23, 1.53, 6.91, repro,
2009-06-14,2.14, 0.87, -6.59, 2.23, 1.58, 6.97, repro,
2009-06-15,-0.03, -0.11, -8.09, 2.22, 1.52, 6.86, repro,